When you browse on this site, cookies collect data to enhance your experience and personalize the content and advertising you see.
Visit our Privacy Policy to learn more. By continuing to use the site, you agree to this use of cookies and data.
  • In Hungary
  • List of Countries
  • For 7 days
  • Water Temperature
  • Weather Map
  • News
  • Weather Widgets
  • user-avatar
    Login

    Hourly Weather Gorskaya Porada

    Today, 19 October, Saturday

    Time Temperature Precipitation Wind Pressure Humidity
    00:00 +14°C° 0 mm 2 mps 758 mmHg 76%
    01:00 +14°C° 0 mm 2 mps 758 mmHg 76%
    02:00 +14°C° 0 mm 2 mps 758 mmHg 75%
    03:00 +13°C° 0 mm 1 mps 758 mmHg 72%
    04:00 +12°C° 0 mm 1 mps 758 mmHg 73%
    05:00 +12°C° 0 mm 1 mps 758 mmHg 73%
    06:00 +12°C° 0 mm 1 mps 758 mmHg 74%
    07:00 +13°C° 0 mm 1 mps 759 mmHg 69%
    08:00 +14°C° 0 mm 2 mps 759 mmHg 65%
    09:00 +15°C° 0 mm 2 mps 760 mmHg 60%
    10:00 +17°C° 0 mm 2 mps 760 mmHg 55%
    11:00 +18°C° 0 mm 2 mps 760 mmHg 50%
    12:00 +20°C° 0 mm 2 mps 760 mmHg 45%
    13:00 +20°C° 0 mm 2 mps 759 mmHg 43%
    14:00 +21°C° 0 mm 2 mps 759 mmHg 41%
    15:00 +23°C° 0 mm 2 mps 759 mmHg 39%
    16:00 +20°C° 0 mm 2 mps 759 mmHg 43%
    17:00 +19°C° 0 mm 2 mps 759 mmHg 47%
    18:00 +18°C° 0 mm 2 mps 759 mmHg 51%
    19:00 +17°C° 0 mm 2 mps 760 mmHg 54%
    20:00 +16°C° 0 mm 2 mps 760 mmHg 56%
    21:00 +16°C° 0 mm 2 mps 760 mmHg 58%
    22:00 +15°C° 0 mm 2 mps 760 mmHg 60%
    23:00 +15°C° 0 mm 2 mps 760 mmHg 62%

    Tomorrow, 20 October, Sunday

    Time Temperature Precipitation Wind Pressure Humidity
    00:00 +14°C° 0 mm 2 mps 761 mmHg 64%
    01:00 +14°C° 0 mm 2 mps 761 mmHg 66%
    02:00 +14°C° 0 mm 2 mps 761 mmHg 67%
    03:00 +13°C° 0 mm 2 mps 761 mmHg 69%
    04:00 +12°C° 0 mm 3 mps 761 mmHg 70%
    05:00 +12°C° 0 mm 3 mps 761 mmHg 71%
    06:00 +11°C° 0 mm 3 mps 761 mmHg 72%
    07:00 +12°C° 0 mm 3 mps 762 mmHg 68%
    08:00 +13°C° 0 mm 3 mps 762 mmHg 65%
    09:00 +14°C° 0 mm 4 mps 762 mmHg 61%
    10:00 +17°C° 0 mm 4 mps 762 mmHg 56%
    11:00 +19°C° 0 mm 4 mps 762 mmHg 51%
    12:00 +21°C° 0 mm 4 mps 762 mmHg 46%
    13:00 +21°C° 0 mm 4 mps 762 mmHg 44%
    14:00 +22°C° 0 mm 4 mps 762 mmHg 43%
    15:00 +22°C° 0 mm 4 mps 762 mmHg 42%
    16:00 +21°C° 0 mm 3 mps 762 mmHg 46%
    17:00 +19°C° 0 mm 3 mps 762 mmHg 50%
    18:00 +18°C° 0 mm 3 mps 762 mmHg 54%
    19:00 +17°C° 0 mm 3 mps 762 mmHg 57%
    20:00 +17°C° 0 mm 3 mps 762 mmHg 59%
    21:00 +16°C° 0 mm 3 mps 762 mmHg 61%
    22:00 +16°C° 0 mm 3 mps 762 mmHg 63%
    23:00 +14°C° 0 mm 3 mps 762 mmHg 65%

    Day after tomorrow, 21 October, Monday

    Time Temperature Precipitation Wind Pressure Humidity
    00:00 +14°C° 0 mm 3 mps 762 mmHg 67%
    01:00 +13°C° 0 mm 3 mps 762 mmHg 69%
    02:00 +13°C° 0 mm 3 mps 763 mmHg 70%
    03:00 +12°C° 0 mm 3 mps 763 mmHg 72%
    04:00 +12°C° 0 mm 3 mps 763 mmHg 74%
    05:00 +12°C° 0 mm 3 mps 763 mmHg 77%
    06:00 +11°C° 0 mm 3 mps 763 mmHg 80%
    07:00 +12°C° 0 mm 4 mps 763 mmHg 76%
    08:00 +13°C° 0 mm 4 mps 763 mmHg 72%
    09:00 +14°C° 0 mm 4 mps 763 mmHg 68%
    10:00 +17°C° 0 mm 4 mps 763 mmHg 62%
    11:00 +18°C° 0 mm 4 mps 763 mmHg 55%
    12:00 +20°C° 0 mm 4 mps 763 mmHg 49%
    13:00 +20°C° 0 mm 4 mps 763 mmHg 47%
    14:00 +21°C° 0 mm 4 mps 763 mmHg 46%
    15:00 +21°C° 0 mm 4 mps 762 mmHg 44%
    16:00 +20°C° 0 mm 3 mps 762 mmHg 48%
    17:00 +19°C° 0 mm 3 mps 762 mmHg 52%
    18:00 +17°C° 0 mm 3 mps 762 mmHg 56%
    19:00 +17°C° 0 mm 3 mps 762 mmHg 58%
    20:00 +16°C° 0 mm 3 mps 762 mmHg 59%
    21:00 +14°C° 0 mm 3 mps 762 mmHg 61%
    22:00 +14°C° 0 mm 3 mps 762 mmHg 63%
    23:00 +14°C° 0 mm 2 mps 762 mmHg 66%

    22 October, Tuesday

    Time Temperature Precipitation Wind Pressure Humidity
    00:00 +14°C° 0 mm 2 mps 762 mmHg 68%
    01:00 +13°C° 0 mm 2 mps 762 mmHg 70%
    02:00 +13°C° 0 mm 2 mps 762 mmHg 71%
    03:00 +13°C° 0 mm 2 mps 762 mmHg 72%
    04:00 +12°C° 0 mm 2 mps 762 mmHg 73%
    05:00 +12°C° 0 mm 2 mps 762 mmHg 73%
    06:00 +12°C° 0 mm 2 mps 762 mmHg 74%
    07:00 +13°C° 0 mm 2 mps 762 mmHg 70%
    08:00 +14°C° 0 mm 2 mps 763 mmHg 65%
    09:00 +15°C° 0 mm 2 mps 763 mmHg 61%
    10:00 +16°C° 0 mm 2 mps 763 mmHg 56%
    11:00 +18°C° 0 mm 2 mps 763 mmHg 50%
    12:00 +19°C° 0 mm 2 mps 762 mmHg 45%
    13:00 +21°C° 0 mm 1 mps 762 mmHg 43%
    14:00 +21°C° 0 mm 1 mps 762 mmHg 41%
    15:00 +22°C° 0 mm 1 mps 762 mmHg 38%
    16:00 +21°C° 0 mm 1 mps 762 mmHg 42%
    17:00 +20°C° 0 mm 1 mps 762 mmHg 45%
    18:00 +19°C° 0 mm 1 mps 762 mmHg 48%
    19:00 +18°C° 0 mm 1 mps 762 mmHg 49%
    20:00 +18°C° 0 mm 1 mps 762 mmHg 51%
    21:00 +16°C° 0 mm 1 mps 762 mmHg 52%
    22:00 +15°C° 0 mm 0 mps 762 mmHg 54%
    23:00 +14°C° 0 mm 0 mps 762 mmHg 55%

    23 October, Wednesday

    Time Temperature Precipitation Wind Pressure Humidity
    00:00 +14°C° 0 mm 0 mps 762 mmHg 56%
    01:00 +14°C° 0 mm 0 mps 762 mmHg 57%
    02:00 +13°C° 0 mm 0 mps 762 mmHg 58%
    03:00 +13°C° 0 mm 0 mps 762 mmHg 59%
    04:00 +13°C° 0 mm 0 mps 762 mmHg 60%
    05:00 +13°C° 0 mm 0 mps 762 mmHg 61%
    06:00 +12°C° 0 mm 0 mps 762 mmHg 62%
    07:00 +13°C° 0 mm 0 mps 762 mmHg 59%
    08:00 +14°C° 0 mm 0 mps 763 mmHg 56%
    09:00 +15°C° 0 mm 0 mps 763 mmHg 53%
    10:00 +17°C° 0 mm 0 mps 763 mmHg 49%
    11:00 +18°C° 0 mm 0 mps 763 mmHg 45%
    12:00 +20°C° 0 mm 0 mps 762 mmHg 41%
    13:00 +20°C° 0 mm 0 mps 762 mmHg 40%
    14:00 +23°C° 0 mm 1 mps 762 mmHg 39%
    15:00 +23°C° 0 mm 1 mps 762 mmHg 38%
    16:00 +22°C° 0 mm 1 mps 762 mmHg 41%
    17:00 +21°C° 0 mm 1 mps 762 mmHg 45%
    18:00 +20°C° 0 mm 1 mps 761 mmHg 48%
    19:00 +19°C° 0 mm 1 mps 762 mmHg 50%
    20:00 +18°C° 0 mm 1 mps 762 mmHg 52%
    21:00 +18°C° 0 mm 1 mps 762 mmHg 55%
    22:00 +16°C° 0 mm 1 mps 762 mmHg 56%
    23:00 +16°C° 0 mm 1 mps 762 mmHg 58%

    24 October, Thursday

    Time Temperature Precipitation Wind Pressure Humidity
    00:00 +15°C° 0 mm 1 mps 762 mmHg 60%
    01:00 +15°C° 0 mm 1 mps 761 mmHg 61%
    02:00 +15°C° 0 mm 1 mps 761 mmHg 63%
    03:00 +14°C° 0 mm 1 mps 761 mmHg 64%
    04:00 +14°C° 0 mm 1 mps 761 mmHg 65%
    05:00 +14°C° 0 mm 1 mps 761 mmHg 67%
    06:00 +13°C° 0 mm 1 mps 761 mmHg 68%
    07:00 +14°C° 0 mm 1 mps 762 mmHg 65%
    08:00 +15°C° 0 mm 1 mps 762 mmHg 61%
    09:00 +16°C° 0 mm 1 mps 762 mmHg 58%
    10:00 +19°C° 0 mm 1 mps 762 mmHg 53%
    11:00 +20°C° 0 mm 1 mps 762 mmHg 48%
    12:00 +22°C° 0 mm 1 mps 762 mmHg 44%
    13:00 +22°C° 0 mm 1 mps 761 mmHg 42%
    14:00 +22°C° 0 mm 1 mps 761 mmHg 40%
    15:00 +23°C° 0 mm 1 mps 761 mmHg 38%
    16:00 +22°C° 0 mm 1 mps 760 mmHg 42%
    17:00 +20°C° 0 mm 1 mps 760 mmHg 45%
    18:00 +19°C° 0 mm 1 mps 760 mmHg 48%
    19:00 +19°C° 0 mm 1 mps 761 mmHg 49%
    20:00 +18°C° 0 mm 1 mps 761 mmHg 51%
    21:00 +18°C° 0 mm 1 mps 761 mmHg 53%
    22:00 +16°C° 0 mm 1 mps 761 mmHg 54%
    23:00 +16°C° 0 mm 1 mps 761 mmHg 55%
    Show more